(409) Aspasia
ephemeris date magn radius delta ra dec elong phase
Today16 Sep 202512.82.410 AU3.285 AU12h56m-11°12'24.8°10.1°
Opposition9 Jul 202610.92.446 AU1.447 AU19h09m-08°39'166.3°5.7°
(409) Aspasia - 2025-09-16
astro.vanbuitenen.nl


 
-1 year
-1 month
-1 day
Now
+1 day
+1 month
+1 year

The interactive orbit chart above shows the body's path through the solar system and its position at the given date. Green and blue lines are shown perpendicular to the ecliptic plane: Green if the path is above the ecliptic plane, blue if it is below. (Left-click and drag to rotate the view; Right-click and drag to move the view; Use scroll wheel to zoom in our out.)

The orbital elements of Aspasia are:

            e (Eccentricity)                : 0.0731923
            a (Semimajor axis)              : 2.5747933
            i (Inclination)                 : 11.28539
            Ω (Longitude of ascending node) : 242.05210
            ω (Argument of perihelion)      : 355.76509
            M (Mean anomaly)                : 301.17999
            Epoch                           : 2025 May 05

            L (Longitude of perihelion)     : 237.89878
            B (Latitude of perihelion)      : -0.82803
            P (Orbital period in years)     : 4.13            
        

The light curve chart below shows the estimated development of the minor planet's magnitude.


The all-sky chart below shows the path of the minor planet over the same period as the light curve. The current position is marked yellow.





The following chart shows the path of the minor planet in the next few days. The field of view is optimized for (~10x50) binoculars and finderscopes. A more printer-friendly version of the same chart can be found below.




Ephemerides:
Date       Time       RA (2000)    DEC (2000)    delta   radius  elong  phase   PA    magn
2025-09-16 00:00 UT   12 56 44.3   -11 12 40     3.285    2.410   24.8   10.1   123   12.8 
2025-09-16 05:18 UT   12 57 08.4   -11 14 35     3.286    2.410   24.7   10.0   123   12.8 
2025-09-17 00:00 UT   12 58 33.4   -11 21 20     3.290    2.409   24.3    9.9   123   12.8 
2025-09-18 00:00 UT   13 00 22.8   -11 29 60     3.294    2.409   23.8    9.7   123   12.8 
2025-09-19 00:00 UT   13 02 12.4   -11 38 39     3.299    2.409   23.3    9.5   123   12.8 
2025-09-20 00:00 UT   13 04 02.2   -11 47 19     3.303    2.408   22.8    9.3   124   12.8 
2025-09-21 00:00 UT   13 05 52.2   -11 55 58     3.307    2.408   22.3    9.1   124   12.8 
2025-09-22 00:00 UT   13 07 42.4   -12 04 37     3.311    2.407   21.8    8.9   124   12.8 
2025-09-23 00:00 UT   13 09 32.9   -12 13 16     3.315    2.407   21.3    8.7   124   12.8 
2025-09-24 00:00 UT   13 11 23.6   -12 21 54     3.318    2.407   20.8    8.5   124   12.8 
2025-09-25 00:00 UT   13 13 14.4   -12 30 31     3.322    2.406   20.3    8.3   124   12.7 
2025-09-26 00:00 UT   13 15 05.5   -12 39 08     3.326    2.406   19.8    8.1   124   12.7 
2025-09-27 00:00 UT   13 16 56.8   -12 47 44     3.329    2.406   19.3    7.9   125   12.7 
2025-09-28 00:00 UT   13 18 48.3   -12 56 19     3.332    2.405   18.8    7.7   125   12.7 
2025-09-29 00:00 UT   13 20 40.1   -13 04 53     3.336    2.405   18.3    7.5   125   12.7 
2025-09-30 00:00 UT   13 22 32.0   -13 13 27     3.339    2.404   17.8    7.3   125   12.7 
2025-10-01 00:00 UT   13 24 24.1   -13 21 59     3.342    2.404   17.3    7.1   125   12.7 
2025-10-02 00:00 UT   13 26 16.5   -13 30 30     3.345    2.404   16.8    6.9   126   12.7 
2025-10-03 00:00 UT   13 28 09.0   -13 38 60     3.348    2.403   16.3    6.7   126   12.7 


    Terminology:
            
    delta:  distance between minor planet and earth in AU
    radius: distance between minor planet and sun in AU
    magn:   magnitude (brightness) estimate    
    ra:     right ascension in hours (24h = 360deg)
    dec:    declination in degrees
    elong:  elongation in degrees (angle sun-earth-minor planet)    
    phase:  phase angle in degrees (angle sun-minor planet-earth)        
    AU:     Astronomical Unit (mean distance between earth and sun: 149597870.7 km
    

Orbital elements provided by the MPC (Minor Planet Center).
Calculations by a modified version of AAPlus, a C# implementation of the AA+ project by PJ Naughter from the algorithms presented in the book "Astronomical Algorithms" by Jean Meeus.
NGC2000 dso catalog and star labels from VizieR as provided by the Strasbourg astronomical Data Center.
Tycho2 catalog from the ESO archive.